| time (UTC) | temp F | wind direction | speed MPH | gust MPH | rain 1hr in | rain 24hr in | rain mn in | humidity % | barometer mb |
| 20260507221119 | 79 | 360 | 1.0 | 4.0 | 0.00 | 0.00 | 0.00 | 91 | 1008.8 |
| 20260507215618 | 80 | 311 | 1.0 | 9.0 | 0.00 | 0.00 | 0.00 | 89 | 1008.9 |
| 20260507214120 | 82 | 360 | 2.0 | 10.0 | 0.00 | 0.00 | 0.00 | 86 | 1008.7 |
| 20260507212623 | 83 | 311 | 2.0 | 5.0 | 0.00 | 0.00 | 0.00 | 85 | 1008.7 |
| 20260507211141 | 83 | 37 | 2.0 | 10.0 | 0.00 | 0.00 | 0.00 | 87 | 1008.8 |
| 20260507205617 | 83 | 5 | 3.0 | 11.0 | 0.00 | 0.00 | 0.00 | 86 | 1009.1 |
| 20260507204133 | 83 | 24 | 2.0 | 8.0 | 0.00 | 0.00 | 0.00 | 85 | 1009.2 |
| 20260507202622 | 84 | 56 | 3.0 | 11.0 | 0.00 | 0.00 | 0.00 | 85 | 1009.6 |
| 20260507201124 | 83 | 59 | 3.0 | 14.0 | 0.00 | 0.00 | 0.00 | 86 | 1009.6 |
| 20260507195624 | 82 | 71 | 2.0 | 9.0 | 0.00 | 0.00 | 0.00 | 87 | 1009.7 |
| 20260507194122 | 81 | 30 | 3.0 | 8.0 | 0.00 | 0.00 | 0.00 | 88 | 1009.8 |
| 20260507192625 | 80 | 57 | 1.0 | 9.0 | 0.00 | 0.00 | 0.00 | 90 | 1009.9 |
| 20260507191145 | 80 | 21 | 3.0 | 9.0 | 0.00 | 0.00 | 0.00 | 88 | 1010.3 |
| 20260507185622 | 81 | 347 | 3.0 | 11.0 | 0.00 | 0.00 | 0.00 | 85 | 1010.3 |
| 20260507184142 | 84 | 36 | 3.0 | 9.0 | 0.00 | 0.00 | 0.00 | 82 | 1010.4 |
| 20260507182704 | 86 | 95 | 2.0 | 7.0 | 0.00 | 0.00 | 0.00 | 81 | 1010.4 |
| 20260507181125 | 85 | 88 | 4.0 | 10.0 | 0.00 | 0.00 | 0.00 | 80 | 1010.4 |
| 20260507175623 | 86 | 78 | 4.0 | 10.0 | 0.00 | 0.00 | 0.00 | 82 | 1010.6 |
| 20260507174123 | 87 | 67 | 3.0 | 10.0 | 0.00 | 0.00 | 0.00 | 81 | 1010.8 |
| 20260507172646 | 86 | 115 | 5.0 | 9.0 | 0.00 | 0.00 | 0.00 | 82 | 1010.7 |
| 20260507171123 | 85 | 59 | 3.0 | 9.0 | 0.00 | 0.00 | 0.00 | 86 | 1010.7 |
| 20260507165624 | 84 | 81 | 2.0 | 6.0 | 0.00 | 0.00 | 0.00 | 87 | 1010.9 |
| 20260507164124 | 84 | 89 | 3.0 | 9.0 | 0.00 | 0.00 | 0.00 | 86 | 1010.9 |
| 20260507162625 | 84 | 84 | 6.0 | 11.0 | 0.00 | 0.00 | 0.00 | 87 | 1010.9 |
| 20260507161144 | 84 | 80 | 3.0 | 10.0 | 0.00 | 0.00 | 0.00 | 88 | 1010.9 |
| 20260507155621 | 83 | 150 | 4.0 | 9.0 | 0.00 | 0.00 | 0.00 | 91 | 1010.8 |
| 20260507154140 | 82 | 72 | 4.0 | 9.0 | 0.00 | 0.00 | 0.00 | 92 | 1010.7 |
| 20260507152619 | 81 | 102 | 3.0 | 8.0 | 0.00 | 0.00 | 0.00 | 92 | 1010.8 |
| 20260507151158 | 81 | 75 | 3.0 | 9.0 | 0.00 | 0.00 | 0.00 | 93 | 1010.6 |
| 20260507145635 | 81 | 84 | 5.0 | 9.0 | 0.00 | 0.00 | 0.00 | 93 | 1010.5 |
| 20260507144121 | 81 | 86 | 4.0 | 10.0 | 0.00 | 0.00 | 0.00 | 94 | 1010.5 |
| 20260507142622 | 81 | 92 | 2.0 | 8.0 | 0.00 | 0.00 | 0.00 | 95 | 1010.2 |
| 20260507141119 | 80 | 77 | 4.0 | 9.0 | 0.00 | 0.00 | 0.00 | 95 | 1010.1 |
| 20260507135618 | 80 | 84 | 3.0 | 7.0 | 0.00 | 0.00 | 0.00 | 96 | 1009.9 |
| 20260507134138 | 80 | 85 | 3.0 | 6.0 | 0.00 | 0.00 | 0.00 | 96 | 1010.0 |
| 20260507132623 | 80 | 90 | 2.0 | 6.0 | 0.00 | 0.00 | 0.00 | 97 | 1009.9 |
| 20260507131124 | 79 | 101 | 2.0 | 8.0 | 0.00 | 0.00 | 0.00 | 97 | 1009.4 |
| 20260507125640 | 79 | 73 | 6.0 | 9.0 | 0.00 | 0.00 | 0.00 | 97 | 1009.4 |
| 20260507124155 | 79 | 57 | 2.0 | 6.0 | 0.00 | 0.00 | 0.00 | 98 | 1009.4 |
| 20260507122620 | 79 | 84 | 5.0 | 9.0 | 0.00 | 0.00 | 0.00 | 97 | 1008.9 |
| 20260507121120 | 79 | 74 | 3.0 | 9.0 | 0.00 | 0.00 | 0.00 | 97 | 1008.5 |
| 20260507115620 | 79 | 76 | 4.0 | 8.0 | 0.00 | 0.00 | 0.00 | 98 | 1008.5 |
| 20260507114118 | 79 | 89 | 3.0 | 6.0 | 0.00 | 0.00 | 0.00 | 97 | 1008.2 |
| 20260507112618 | 79 | 86 | 0.0 | 2.0 | 0.00 | 0.00 | 0.00 | 97 | 1008.3 |
| 20260507111135 | 79 | 86 | 1.0 | 6.0 | 0.00 | 0.00 | 0.00 | 97 | 1008.3 |
| 20260507105636 | 79 | 56 | 5.0 | 9.0 | 0.00 | 0.00 | 0.00 | 97 | 1007.4 |
| 20260507104119 | 79 | 69 | 5.0 | 12.0 | 0.00 | 0.00 | 0.00 | 97 | 1007.5 |
| 20260507102618 | 79 | 93 | 3.0 | 6.0 | 0.00 | 0.00 | 0.00 | 97 | 1007.8 |
| 20260507101118 | 79 | 90 | 3.0 | 5.0 | 0.00 | 0.00 | 0.00 | 96 | 1008.4 |
| 20260507095619 | 80 | 83 | 2.0 | 6.0 | 0.00 | 0.00 | 0.00 | 96 | 1008.3 |
| 20260507094137 | 80 | 76 | 0.0 | 0.0 | 0.00 | 0.00 | 0.00 | 96 | 1008.6 |
| 20260507092620 | 80 | 76 | 0.0 | 2.0 | 0.00 | 0.00 | 0.00 | 96 | 1008.6 |
| 20260507091138 | 80 | 76 | 0.0 | 0.0 | 0.00 | 0.00 | 0.00 | 96 | 1008.5 |
| 20260507085630 | 80 | 76 | 0.0 | 4.0 | 0.00 | 0.00 | 0.00 | 96 | 1008.3 |
| 20260507084148 | 80 | 103 | 2.0 | 4.0 | 0.00 | 0.00 | 0.00 | 95 | 1008.0 |
| 20260507082627 | 80 | 106 | 0.0 | 3.0 | 0.00 | 0.00 | 0.00 | 95 | 1008.2 |
| 20260507081127 | 80 | 105 | 0.0 | 0.0 | 0.00 | 0.00 | 0.00 | 95 | 1008.5 |
| 20260507075627 | 80 | 102 | 0.0 | 3.0 | 0.00 | 0.00 | 0.00 | 95 | 1008.6 |
| 20260507074130 | 80 | 101 | 1.0 | 3.0 | 0.00 | 0.00 | 0.00 | 95 | 1008.4 |
| 20260507072630 | 80 | 132 | 1.0 | 3.0 | 0.00 | 0.00 | 0.00 | 95 | 1008.4 |
| 20260507071131 | 80 | 132 | 1.0 | 4.0 | 0.00 | 0.00 | 0.00 | 95 | 1008.5 |
| 20260507065651 | 81 | 128 | 2.0 | 7.0 | 0.00 | 0.00 | 0.00 | 95 | 1008.5 |
| 20260507064128 | 81 | 134 | 3.0 | 8.0 | 0.00 | 0.00 | 0.00 | 95 | 1008.6 |
| 20260507062631 | 81 | 126 | 2.0 | 7.0 | 0.00 | 0.00 | 0.00 | 95 | 1008.6 |
| 20260507061127 | 81 | 141 | 3.0 | 7.0 | 0.00 | 0.00 | 0.00 | 95 | 1008.5 |
| 20260507055632 | 81 | 153 | 2.0 | 8.0 | 0.00 | 0.00 | 0.00 | 95 | 1008.3 |
| 20260507054124 | 81 | 130 | 3.0 | 8.0 | 0.00 | 0.00 | 0.00 | 95 | 1008.5 |
| 20260507052625 | 81 | 122 | 3.0 | 7.0 | 0.00 | 0.00 | 0.00 | 95 | 1008.6 |
| 20260507051124 | 81 | 132 | 5.0 | 11.0 | 0.00 | 0.00 | 0.00 | 95 | 1008.6 |
| 20260507045634 | 81 | 149 | 3.0 | 8.0 | 0.00 | 0.00 | 0.00 | 95 | 1008.4 |
| 20260507044125 | 81 | 81 | 3.0 | 7.0 | 0.00 | 0.00 | 0.00 | 95 | 1008.2 |
| 20260507042624 | 81 | 93 | 3.0 | 6.0 | 0.00 | 0.00 | 0.00 | 95 | 1008.3 |
| 20260507041123 | 81 | 80 | 2.0 | 7.0 | 0.00 | 0.00 | 0.00 | 95 | 1008.2 |
| 20260507035642 | 81 | 127 | 4.0 | 8.0 | 0.00 | 0.00 | 0.00 | 95 | 1007.9 |
| 20260507034143 | 81 | 360 | 4.0 | 10.0 | 0.00 | 0.00 | 0.00 | 95 | 1007.7 |
| 20260507032618 | 81 | 69 | 3.0 | 8.0 | 0.00 | 0.00 | 0.00 | 95 | 1007.5 |
| 20260507031118 | 81 | 110 | 4.0 | 10.0 | 0.00 | 0.00 | 0.00 | 95 | 1007.1 |
| 20260507025623 | 81 | 107 | 6.0 | 10.0 | 0.00 | 0.00 | 0.00 | 95 | 1006.9 |
| 20260507024138 | 81 | 136 | 3.0 | 8.0 | 0.00 | 0.00 | 0.00 | 95 | 1006.8 |
| 20260507022619 | 81 | 148 | 3.0 | 7.0 | 0.00 | 0.00 | 0.00 | 95 | 1006.5 |
| 20260507021121 | 81 | 80 | 3.0 | 9.0 | 0.00 | 0.00 | 0.00 | 94 | 1006.6 |
| 20260507015622 | 81 | 91 | 4.0 | 8.0 | 0.00 | 0.00 | 0.00 | 94 | 1006.2 |
| 20260507014121 | 81 | 113 | 4.0 | 9.0 | 0.00 | 0.00 | 0.00 | 94 | 1005.9 |
| 20260507012623 | 81 | 135 | 5.0 | 11.0 | 0.00 | 0.00 | 0.00 | 93 | 1005.4 |
| 20260507011124 | 82 | 108 | 3.0 | 12.0 | 0.00 | 0.00 | 0.00 | 92 | 1005.3 |
| 20260507005622 | 82 | 146 | 6.0 | 11.0 | 0.00 | 0.00 | 0.00 | 91 | 1005.0 |